Simultaneous Nadir Overpasses (SNOs) Predictions

Prediction of SNOs between GOES-14 and AQUA Satellite Orbit:

Table of predicted SNOs for the next 14.0 days since TLE Epoch: 10/23/2021
Index Date Time (GOES-14) GOES-14 Lat,Lon AQUA Lat,Lon Distance(km) Time Diff (sec)
1 10/23/2021 20:32:41 -0.22,-104.18 -0.16,-103.90 31.24 80
2 10/25/2021 20:20:32 -0.22,-104.18 0.47,-100.96 366.91 80
3 10/26/2021 08:41:49 0.19,-104.31 0.59,-106.12 205.82 80
4 10/28/2021 08:27:00 0.20,-104.31 -0.05,-103.18 128.82 80
5 10/28/2021 20:48:24 -0.17,-104.15 -1.08,-108.36 479.34 80
6 10/30/2021 08:14:51 0.20,-104.30 -0.70,-100.23 463.69 80
7 10/30/2021 20:36:15 -0.17,-104.15 -0.44,-105.41 143.75 80
8 11/01/2021 20:26:46 -0.17,-104.15 0.22,-102.47 191.85 80
9 11/02/2021 08:48:03 0.15,-104.33 0.84,-107.64 375.56 80
10 11/04/2021 08:35:53 0.15,-104.33 0.24,-104.68 40.41 80
